User: anonymous   Login
Location: Tyler Bend Campground
(35.9875°N, 92.7606°W)
Time: 05:09:07
(UTC-05:00)
Language:

CZ-2C R/B - Orbit

View from above orbital plane
View from above orbital plane
View from above satellite
View from above satellite

Ground track
Ground track

The orbit data is extracted from the following two-line orbital elements,

1 36089U 09061B   16272.01216395  .00000093  00000-0  34265-4 0  9993
2 36089  98.0518 279.5255 0083110 132.5885 281.2873 14.49600326363726
Epoch (UTC): 28 September 2016 00:17:30
Eccentricity: 0.0083110
inclination: 98.0518°
perigee height: 668 km
apogee height: 786 km
right ascension of ascending node: 279.5255°
argument of perigee: 132.5885°
revolutions per day: 14.49600326
mean anomaly at epoch: 281.2873°
orbit number at epoch: 36372

The dashed part of the orbit path shows where the satellite is in the earth's shadow,  

DLR